Regional Weather Roundup
Issued by NWS Upton, NY

Current Version | Previous Version | Graphics & Text | Print | Product List | Glossary Off
Versions: 1 2 3 4 5 6 7 8 9 10 11 12 13 14 15 16 17 18 19 20 21 22 23 24 25 26 27

000
ASUS41 KOKX 270908
RWROKX

REGIONAL WEATHER ROUNDUP
NATIONAL WEATHER SERVICE NEW YORK NY
400 AM EST MON FEB 27 2017

NOTE: "FAIR" INDICATES FEW OR NO CLOUDS BELOW 12,000 FEET WITH NO
SIGNIFICANT WEATHER AND/OR OBSTRUCTIONS TO VISIBILITY.

NYZ071-072-176-178-NJZ106-104-271000-
NEW YORK CITY METRO AREA

CITY           SKY/WX    TMP DP  RH WIND       PRES   REMARKS
Central Park   CLEAR     35  18  49 VRB7      30.34R WCI  29
Wall St Helipt NOT AVBL
LaGuardia APRT CLEAR     38  17  42 S10       30.32R WCI  31
Kennedy INTL   CLEAR     33  24  69 SW10      30.35R WCI  25
Breezy Point     N/A     34 N/A N/A SW6         N/A  WCI  29
Newark/Liberty CLEAR     31  19  61 SW6       30.34R WCI  25
Teterboro      CLEAR     32  20  61 S10       30.32R WCI  24
$$

NYZ177-179-078>081-271000-
LONG ISLAND NEW YORK

CITY           SKY/WX    TMP DP  RH WIND       PRES   REMARKS
Jones Beach      N/A     37 N/A N/A SW8         N/A  WCI  31
Matinecock PT  NOT AVBL
Farmingdale    PTCLDY    31  19  61 CALM      30.33R
MacArthur/ISP  CLEAR     31  21  66 S6        30.32R WCI  25
Shirley        CLEAR     28  20  71 S6        30.33R WCI  22
Westhampton    CLEAR     17  12  80 CALM      30.35R
Southampton    NOT AVBL
Bridgehampton  NOT AVBL
East Hampton     N/A     26  17  68 CALM      30.33R
Montauk          N/A     34  22  61 SW5       30.33R WCI  30
$$

NYZ052-065-067-271000-
HUDSON VALLEY

CITY           SKY/WX    TMP DP  RH WIND       PRES   REMARKS
White Plains   CLEAR     31  16  54 SW3       30.28R
Newburgh       CLEAR     27  19  74 CALM      30.27S
Montgomery     CLEAR     24  19  81 S3        30.26R
Poughkeepsie   CLEAR     23  19  85 CALM      30.27S
Albany         CLEAR     29  17  61 S13       30.22R WCI  19
$$

NJZ001-105-106-008-010-013-015-019>022-104-271000-
NEW JERSEY

CITY           SKY/WX    TMP DP  RH WIND       PRES   REMARKS
Newark/Liberty CLEAR     31  19  61 SW6       30.34R WCI  25
Teterboro      CLEAR     32  20  61 S10       30.32R WCI  24
Caldwell       CLEAR     30  17  58 VRB3      30.33R
Somerville     NOT AVBL
Linden         NOT AVBL
Sussex         CLEAR     22  19  89 SW3       30.28R
Andover          N/A     27  19  72 S3        30.29R
Trenton        CLEAR     30  20  66 SW3       30.34R
Millville      CLEAR     21  19  92 CALM      30.38R
Atlantic City  CLEAR     29  20  69 S5        30.38R WCI  24
Wrightstown    CLEAR     27  20  73 SW3       30.33R
Toms River     CLEAR     23  19  85 S3        30.37R
Belmar         CLEAR     29  19  66 SW7       30.35R WCI  22
$$

PAZ047>061-062-071-271000-
EASTERN PENNSYLVANIA

CITY           SKY/WX    TMP DP  RH WIND       PRES   REMARKS
Philadelphia   CLEAR     33  23  66 CALM      30.37R
Allentown      CLEAR     26  17  68 SW5       30.32R WCI  20
Scranton       CLEAR     26  18  71 S5        30.26R WCI  20
$$

CTZ002-004>006-009-010-012-RIZ004-006-007-MAZ004-011-015-271000-
SOUTHERN NEW ENGLAND
 IN CT

CITY           SKY/WX    TMP DP  RH WIND       PRES   REMARKS
Bradley INTL   PTCLDY    26  17  68 S5        30.26R WCI  20
Hartford       CLEAR     29  19  66 S7        30.28R WCI  22
Danbury        CLEAR     23  18  81 SW5       30.29R WCI  17
Wtrbury/Oxford CLEAR     27  12  54 SW5       30.26R WCI  21
Bridgeport     PTCLDY    33  22  63 SW5       30.31R WCI  29
Meriden        CLEAR     25  18  74 S3        30.29R
New Haven      CLEAR     34  21  59 SW5       30.30R WCI  30
Chester          N/A     30  18  59 SW7       30.28R WCI  23
Groton         CLEAR     33  20  58 W6        30.30R WCI  28
Wilimantic     CLEAR     23  20  88 CALM      30.29R

 IN RI

CITY           SKY/WX    TMP DP  RH WIND       PRES   REMARKS
Providence     PTCLDY    27  18  69 SW6       30.29R WCI  20
Block Island   CLEAR     35  23  61 SW13      30.32R WCI  26
Westerly       CLEAR     31  16  54 CALM      30.31R
 IN MA

CITY           SKY/WX    TMP DP  RH WIND       PRES   REMARKS
Boston         PTCLDY    30  19  63 SW9       30.26S WCI  22
Worcester      CLEAR     27  14  58 SW14      30.20R WCI  16
Westfield      CLEAR     25  18  74 S3        30.25R
Provincetown   CLEAR     33  21  61 W10       30.29R WCI  25
Nantucket      CLEAR     31  18  58 W6        30.32R WCI  25
$$

ANZ330-335-338-340-345-350-353-355-271000-
COASTAL MARINE OBSERVATIONS


STATION/POSITION TIME  SKY/WX   TEMP    WIND        PRES    VSBY  WAVE
                                AIR SEA DIR/SP/G                  HT/PER
                 (UTC)          (F)     (DEG/KT/KT) (MB)    (MI)  (FT/S)
NY HARB ENTRANCE 0750            38 42  230/ 12/ 14 1026.5          2/10
20 S FIRE ISLAND 0850            40 43  250/  8/  8 1027.3          3/ 9
GREAT SOUTH BAY  NOT AVBL
23 SSW MONTAUK P 0850            40 44              1027.6          4/10
15 E BARNEGAT LI 0830               44                N/A           3/10
HUDSON CANYON    0750               47              1027.4          5/10
KINGS POINT      0848            36 40              1026.6
EXECUTION ROCKS  NOT AVBL
CENTRAL LI SOUND 0830            38     240/ 12/ 16   N/A           2/ 4
EASTERN LI SOUND NOT AVBL
ROBBINS REEF     0848            35     220/  7/  9 1027.6
$$


>>>>>>>>>>>>>>>>>>>>>>>>>>>> KEY <<<<<<<<<<<<<<<<<<<<<<<<<<<
>                                                          <
>     SKY/WX - Sky Condition/Present Weather               <
>     TMP    - Temperature in Fahrenheit                   <
>     DP     - Dew Point in Fahrenheit                     <
>     RH     - Relative Humidity in Percent                <
>     WIND   - Direction (from) and Speed in MPH           <
>     PRES   - Mean Sea Level Pressure (inches of Hg)      <
>     WCI    - Wind Chill Index                            <
>     VSB    - VISIBILITY IN MILES                         <
>     HX     - HEAT INDEX                                  <
>     TC     - TEMPERATURE IN CELSIUS                      <
>     VRB    - VARIABLE WIND DIRECTION                     <
>                                                          <
>>>>>>>>>>>>>>>>>>>>>>>>>>>> KEY <<<<<<<<<<<<<<<<<<<<<<<<<<<




USA.gov is the U.S. government's official web portal to all federal, state and local government web resources and services.